User: anonymous   Login
Location: Unspecified
(0.0000°N, 0.0000°E)
Time: 07:56:59
(UTC+00:00)
Language:

UNAMSat - Orbit

View from above orbital plane
View from above orbital plane
View from above satellite
View from above satellite

Ground track
Ground track

The orbit data is extracted from the following two-line orbital elements,

1 24305U 96052B   20336.72087149  .00000021  00000-0  63767-5 0  9995
2 24305  82.9344 137.6770 0031146 124.4386 235.9720 13.73827968215000
Epoch (UTC): 01 December 2020 17:18:03
Eccentricity: 0.0031146
inclination: 82.9344°
perigee height: 963 km
apogee height: 1009 km
right ascension of ascending node: 137.6770°
argument of perigee: 124.4386°
revolutions per day: 13.73827968
mean anomaly at epoch: 235.9720°
orbit number at epoch: 21500

The dashed part of the orbit path shows where the satellite is in the earth's shadow,  

DLR